#datetime,meter,power
2022-01-16T00:00:00,01,8.81
2022-01-16T00:01:00,01,8.74
2022-01-16T00:02:00,01,8.74
2022-01-16T00:03:00,01,8.76
2022-01-16T00:04:00,01,8.76
2022-01-16T00:05:00,01,8.85
2022-01-16T00:06:00,01,8.67
2022-01-16T00:07:00,01,8.67
2022-01-16T00:08:00,01,8.28
2022-01-16T00:09:00,01,8.79
2022-01-16T00:10:00,01,8.34
2022-01-16T00:11:00,01,8.34
2022-01-16T00:12:00,01,8.86
2022-01-16T00:13:00,01,8.86
2022-01-16T00:14:00,01,9.09
2022-01-16T00:15:00,01,8.43
2022-01-16T00:16:00,01,9.11
2022-01-16T00:17:00,01,9.11
2022-01-16T00:18:00,01,8.58
2022-01-16T00:19:00,01,8.63
2022-01-16T00:20:00,01,8.63
2022-01-16T00:21:00,01,8.75
2022-01-16T00:22:00,01,8.75
2022-01-16T00:23:00,01,8.75
2022-01-16T00:24:00,01,8.76
2022-01-16T00:25:00,01,8.76
2022-01-16T00:26:00,01,9.02
2022-01-16T00:27:00,01,8.88
2022-01-16T00:28:00,01,8.88
2022-01-16T00:29:00,01,8.90
2022-01-16T00:30:00,01,8.81
2022-01-16T00:31:00,01,8.81
2022-01-16T00:32:00,01,8.05
2022-01-16T00:33:00,01,8.81
2022-01-16T00:34:00,01,8.81
2022-01-16T00:35:00,01,9.30
2022-01-16T00:36:00,01,9.03
2022-01-16T00:37:00,01,9.03
2022-01-16T00:38:00,01,9.13
2022-01-16T00:39:00,01,9.13
2022-01-16T00:40:00,01,8.72
2022-01-16T00:41:00,01,8.72
2022-01-16T00:42:00,01,8.68
2022-01-16T00:43:00,01,8.68
2022-01-16T00:44:00,01,8.72
2022-01-16T00:45:00,01,8.72
2022-01-16T00:46:00,01,8.22
2022-01-16T00:47:00,01,8.22
2022-01-16T00:48:00,01,8.03
2022-01-16T00:49:00,01,8.03
2022-01-16T00:50:00,01,8.29
2022-01-16T00:51:00,01,8.28
2022-01-16T00:52:00,01,8.28
2022-01-16T00:53:00,01,8.99
2022-01-16T00:54:00,01,8.99
2022-01-16T00:55:00,01,8.99
2022-01-16T00:56:00,01,9.14
2022-01-16T00:57:00,01,9.14
2022-01-16T00:58:00,01,8.71
2022-01-16T00:59:00,01,8.75
2022-01-16T01:00:00,01,8.75
2022-01-16T01:01:00,01,7.86
2022-01-16T01:02:00,01,7.86
2022-01-16T01:03:00,01,9.66
2022-01-16T01:04:00,01,9.66
2022-01-16T01:05:00,01,9.04
2022-01-16T01:06:00,01,9.04
2022-01-16T01:07:00,01,9.08
2022-01-16T01:08:00,01,9.07
2022-01-16T01:09:00,01,8.92
2022-01-16T01:10:00,01,8.92
2022-01-16T01:11:00,01,9.06
2022-01-16T01:12:00,01,9.06
2022-01-16T01:13:00,01,9.06
2022-01-16T01:14:00,01,9.56
2022-01-16T01:15:00,01,9.56
2022-01-16T01:16:00,01,9.37
2022-01-16T01:17:00,01,8.03
2022-01-16T01:18:00,01,8.03
2022-01-16T01:19:00,01,8.55
2022-01-16T01:20:00,01,8.55
2022-01-16T01:21:00,01,8.66
2022-01-16T01:22:00,01,8.66
2022-01-16T01:23:00,01,8.16
2022-01-16T01:24:00,01,8.16
2022-01-16T01:25:00,01,8.92
2022-01-16T01:26:00,01,8.92
2022-01-16T01:27:00,01,9.01
2022-01-16T01:28:00,01,8.96
2022-01-16T01:29:00,01,8.96
2022-01-16T01:30:00,01,9.02
2022-01-16T01:31:00,01,9.02
2022-01-16T01:32:00,01,9.40
2022-01-16T01:33:00,01,9.60
2022-01-16T01:34:00,01,9.62
2022-01-16T01:35:00,01,8.68
2022-01-16T01:36:00,01,8.68
2022-01-16T01:37:00,01,9.07
2022-01-16T01:38:00,01,9.11
2022-01-16T01:39:00,01,9.11
2022-01-16T01:40:00,01,8.39
2022-01-16T01:41:00,01,8.39
2022-01-16T01:42:00,01,8.26
2022-01-16T01:43:00,01,8.26
2022-01-16T01:44:00,01,8.05
2022-01-16T01:45:00,01,8.70
2022-01-16T01:46:00,01,8.70
2022-01-16T01:47:00,01,9.57
2022-01-16T01:48:00,01,10.02
2022-01-16T01:49:00,01,10.02
2022-01-16T01:50:00,01,9.67
2022-01-16T01:51:00,01,9.67
2022-01-16T01:52:00,01,9.11
2022-01-16T01:53:00,01,8.97
2022-01-16T01:54:00,01,8.97
2022-01-16T01:55:00,01,9.24
2022-01-16T01:56:00,01,9.24
2022-01-16T01:57:00,01,9.12
2022-01-16T01:58:00,01,9.21
2022-01-16T01:59:00,01,9.21
2022-01-16T02:00:00,01,9.14
2022-01-16T02:01:00,01,9.14
2022-01-16T02:02:00,01,8.97
2022-01-16T02:03:00,01,8.97
2022-01-16T02:04:00,01,8.63
2022-01-16T02:05:00,01,8.63
2022-01-16T02:06:00,01,8.83
2022-01-16T02:07:00,01,8.83
2022-01-16T02:08:00,01,9.25
2022-01-16T02:09:00,01,9.25
2022-01-16T02:10:00,01,8.02
2022-01-16T02:11:00,01,8.62
2022-01-16T02:12:00,01,8.60
2022-01-16T02:13:00,01,8.60
2022-01-16T02:14:00,01,10.48
2022-01-16T02:15:00,01,8.80
2022-01-16T02:16:00,01,8.80
2022-01-16T02:17:00,01,9.12
2022-01-16T02:18:00,01,8.57
2022-01-16T02:19:00,01,8.57
2022-01-16T02:20:00,01,8.16
2022-01-16T02:21:00,01,8.16
2022-01-16T02:22:00,01,8.57
2022-01-16T02:23:00,01,9.14
2022-01-16T02:24:00,01,9.14
2022-01-16T02:25:00,01,8.93
2022-01-16T02:26:00,01,9.05
2022-01-16T02:27:00,01,9.05
2022-01-16T02:28:00,01,8.97
2022-01-16T02:29:00,01,8.97
2022-01-16T02:30:00,01,8.49
2022-01-16T02:31:00,01,8.49
2022-01-16T02:32:00,01,9.24
2022-01-16T02:33:00,01,8.99
2022-01-16T02:34:00,01,8.49
2022-01-16T02:35:00,01,8.49
2022-01-16T02:36:00,01,8.41
2022-01-16T02:37:00,01,8.49
2022-01-16T02:38:00,01,8.49
2022-01-16T02:39:00,01,8.80
2022-01-16T02:40:00,01,8.80
2022-01-16T02:41:00,01,8.31
2022-01-16T02:42:00,01,8.31
2022-01-16T02:43:00,01,7.58
2022-01-16T02:44:00,01,7.58
2022-01-16T02:45:00,01,7.90
2022-01-16T02:46:00,01,7.90
2022-01-16T02:47:00,01,8.46
2022-01-16T02:48:00,01,8.18
2022-01-16T02:49:00,01,8.18
2022-01-16T02:50:00,01,8.30
2022-01-16T02:51:00,01,8.30
2022-01-16T02:52:00,01,8.13
2022-01-16T02:53:00,01,8.13
2022-01-16T02:54:00,01,8.81
2022-01-16T02:55:00,01,8.81
2022-01-16T02:56:00,01,8.57
2022-01-16T02:57:00,01,8.04
2022-01-16T02:58:00,01,8.04
2022-01-16T02:59:00,01,8.55
2022-01-16T03:00:00,01,8.09
2022-01-16T03:01:00,01,8.09
2022-01-16T03:02:00,01,8.30
2022-01-16T03:03:00,01,8.03
2022-01-16T03:04:00,01,8.03
2022-01-16T03:05:00,01,9.54
2022-01-16T03:06:00,01,9.54
2022-01-16T03:07:00,01,8.31
2022-01-16T03:08:00,01,8.31
2022-01-16T03:09:00,01,8.97
2022-01-16T03:10:00,01,8.81
2022-01-16T03:11:00,01,8.81
2022-01-16T03:12:00,01,8.80
2022-01-16T03:13:00,01,8.78
2022-01-16T03:14:00,01,8.78
2022-01-16T03:15:00,01,8.19
2022-01-16T03:16:00,01,8.19
2022-01-16T03:17:00,01,7.83
2022-01-16T03:18:00,01,7.83
2022-01-16T03:19:00,01,8.02
2022-01-16T03:20:00,01,7.69
2022-01-16T03:21:00,01,7.69
2022-01-16T03:22:00,01,7.84
2022-01-16T03:23:00,01,7.84
2022-01-16T03:24:00,01,7.67
2022-01-16T03:25:00,01,7.68
2022-01-16T03:26:00,01,7.68
2022-01-16T03:27:00,01,7.96
2022-01-16T03:28:00,01,7.86
2022-01-16T03:29:00,01,7.86
2022-01-16T00:00:00,02,1.26
2022-01-16T00:01:00,02,1.26
2022-01-16T00:02:00,02,1.26
2022-01-16T00:03:00,02,1.26
2022-01-16T00:04:00,02,1.26
2022-01-16T00:05:00,02,1.26
2022-01-16T00:06:00,02,1.26
2022-01-16T00:07:00,02,1.26
2022-01-16T00:08:00,02,1.26
2022-01-16T00:09:00,02,1.26
2022-01-16T00:10:00,02,1.26
2022-01-16T00:11:00,02,1.26
2022-01-16T00:12:00,02,1.26
2022-01-16T00:13:00,02,1.26
2022-01-16T00:14:00,02,1.26
2022-01-16T00:15:00,02,1.26
2022-01-16T00:16:00,02,1.26
2022-01-16T00:17:00,02,1.26
2022-01-16T00:18:00,02,1.26
2022-01-16T00:19:00,02,1.26
2022-01-16T00:20:00,02,1.26
2022-01-16T00:21:00,02,1.26
2022-01-16T00:22:00,02,1.26
2022-01-16T00:23:00,02,1.26
2022-01-16T00:24:00,02,1.26
2022-01-16T00:25:00,02,1.26
2022-01-16T00:26:00,02,1.26
2022-01-16T00:27:00,02,1.26
2022-01-16T00:28:00,02,1.26
2022-01-16T00:29:00,02,1.26
2022-01-16T00:30:00,02,1.26
2022-01-16T00:31:00,02,1.26
2022-01-16T00:32:00,02,1.26
2022-01-16T00:33:00,02,1.26
2022-01-16T00:34:00,02,1.26
2022-01-16T00:35:00,02,1.26
2022-01-16T00:36:00,02,1.26
2022-01-16T00:37:00,02,1.26
2022-01-16T00:38:00,02,1.26
2022-01-16T00:39:00,02,1.26
2022-01-16T00:40:00,02,1.26
2022-01-16T00:41:00,02,1.26
2022-01-16T00:42:00,02,1.26
2022-01-16T00:43:00,02,1.26
2022-01-16T00:44:00,02,1.26
2022-01-16T00:45:00,02,1.26
2022-01-16T00:46:00,02,1.26
2022-01-16T00:47:00,02,1.26
2022-01-16T00:48:00,02,1.26
2022-01-16T00:49:00,02,1.26
2022-01-16T00:50:00,02,1.26
2022-01-16T00:51:00,02,1.26
2022-01-16T00:52:00,02,1.26
2022-01-16T00:53:00,02,1.26
2022-01-16T00:54:00,02,1.26
2022-01-16T00:55:00,02,1.26
2022-01-16T00:56:00,02,1.26
2022-01-16T00:57:00,02,1.26
2022-01-16T00:58:00,02,1.26
2022-01-16T00:59:00,02,1.26
2022-01-16T01:00:00,02,1.26
2022-01-16T01:01:00,02,1.26
2022-01-16T01:02:00,02,1.26
2022-01-16T01:03:00,02,1.26
2022-01-16T01:04:00,02,1.26
2022-01-16T01:05:00,02,1.26
2022-01-16T01:06:00,02,1.26
2022-01-16T01:07:00,02,1.26
2022-01-16T01:08:00,02,1.26
2022-01-16T01:09:00,02,1.26
2022-01-16T01:10:00,02,1.26
2022-01-16T01:11:00,02,1.26
2022-01-16T01:12:00,02,1.26
2022-01-16T01:13:00,02,1.26
2022-01-16T01:14:00,02,1.26
2022-01-16T01:15:00,02,1.26
2022-01-16T01:16:00,02,1.26
2022-01-16T01:17:00,02,1.26
2022-01-16T01:18:00,02,1.26
2022-01-16T01:19:00,02,1.26
2022-01-16T01:20:00,02,1.26
2022-01-16T01:21:00,02,1.26
2022-01-16T01:22:00,02,1.26
2022-01-16T01:23:00,02,1.26
2022-01-16T01:24:00,02,1.26
2022-01-16T01:25:00,02,1.26
2022-01-16T01:26:00,02,1.26
2022-01-16T01:27:00,02,1.26
2022-01-16T01:28:00,02,1.26
2022-01-16T01:29:00,02,1.26
2022-01-16T01:30:00,02,1.26
2022-01-16T01:31:00,02,1.26
2022-01-16T01:32:00,02,1.26
2022-01-16T01:33:00,02,1.26
2022-01-16T01:34:00,02,1.26
2022-01-16T01:35:00,02,1.26
2022-01-16T01:36:00,02,1.26
2022-01-16T01:37:00,02,1.26
2022-01-16T01:38:00,02,1.26
2022-01-16T01:39:00,02,1.26
2022-01-16T01:40:00,02,1.26
2022-01-16T01:41:00,02,1.26
2022-01-16T01:42:00,02,1.26
2022-01-16T01:43:00,02,1.26
2022-01-16T01:44:00,02,1.26
2022-01-16T01:45:00,02,1.26
2022-01-16T01:46:00,02,1.26
2022-01-16T01:47:00,02,1.26
2022-01-16T01:48:00,02,1.26
2022-01-16T01:49:00,02,1.26
2022-01-16T01:50:00,02,1.26
2022-01-16T01:51:00,02,1.26
2022-01-16T01:52:00,02,1.26
2022-01-16T01:53:00,02,1.26
2022-01-16T01:54:00,02,1.26
2022-01-16T01:55:00,02,1.26
2022-01-16T01:56:00,02,1.26
2022-01-16T01:57:00,02,1.26
2022-01-16T01:58:00,02,1.26
2022-01-16T01:59:00,02,1.26
2022-01-16T02:00:00,02,1.26
2022-01-16T02:01:00,02,1.26
2022-01-16T02:02:00,02,1.26
2022-01-16T02:03:00,02,1.26
2022-01-16T02:04:00,02,1.26
2022-01-16T02:05:00,02,1.26
2022-01-16T02:06:00,02,1.26
2022-01-16T02:07:00,02,1.26
2022-01-16T02:08:00,02,1.26
2022-01-16T02:09:00,02,1.26
2022-01-16T02:10:00,02,1.26
2022-01-16T02:11:00,02,1.26
2022-01-16T02:12:00,02,1.26
2022-01-16T02:13:00,02,1.26
2022-01-16T02:14:00,02,1.26
2022-01-16T02:15:00,02,1.26
2022-01-16T02:16:00,02,1.26
2022-01-16T02:17:00,02,1.26
2022-01-16T02:18:00,02,1.26
2022-01-16T02:19:00,02,1.26
2022-01-16T02:20:00,02,1.26
2022-01-16T02:21:00,02,1.26
2022-01-16T02:22:00,02,1.26
2022-01-16T02:23:00,02,1.26
2022-01-16T02:24:00,02,1.26
2022-01-16T02:25:00,02,1.26
2022-01-16T02:26:00,02,1.26
2022-01-16T02:27:00,02,1.26
2022-01-16T02:28:00,02,1.26
2022-01-16T02:29:00,02,1.26
2022-01-16T02:30:00,02,1.26
2022-01-16T02:31:00,02,1.26
2022-01-16T02:32:00,02,1.26
2022-01-16T02:33:00,02,1.26
2022-01-16T02:34:00,02,1.26
2022-01-16T02:35:00,02,1.26
2022-01-16T02:36:00,02,1.26
2022-01-16T02:37:00,02,1.26
2022-01-16T02:38:00,02,1.26
2022-01-16T02:39:00,02,1.26
2022-01-16T02:40:00,02,1.26
2022-01-16T02:41:00,02,1.26
2022-01-16T02:42:00,02,1.26
2022-01-16T02:43:00,02,1.26
2022-01-16T02:44:00,02,1.26
2022-01-16T02:45:00,02,1.26
2022-01-16T02:46:00,02,1.26
2022-01-16T02:47:00,02,1.26
2022-01-16T02:48:00,02,1.26
2022-01-16T02:49:00,02,1.26
2022-01-16T02:50:00,02,1.26
2022-01-16T02:51:00,02,1.26
2022-01-16T02:52:00,02,1.26
2022-01-16T02:53:00,02,1.26
2022-01-16T02:54:00,02,1.26
2022-01-16T02:55:00,02,1.26
2022-01-16T02:56:00,02,1.26
2022-01-16T02:57:00,02,1.26
2022-01-16T02:58:00,02,1.26
2022-01-16T02:59:00,02,1.26
2022-01-16T03:00:00,02,1.26
2022-01-16T03:01:00,02,1.26
2022-01-16T03:02:00,02,1.26
2022-01-16T03:03:00,02,1.26
2022-01-16T03:04:00,02,1.26
2022-01-16T03:05:00,02,1.26
2022-01-16T03:06:00,02,1.26
2022-01-16T03:07:00,02,1.26
2022-01-16T03:08:00,02,1.26
2022-01-16T03:09:00,02,1.26
2022-01-16T03:10:00,02,1.26
2022-01-16T03:11:00,02,1.26
2022-01-16T03:12:00,02,1.26
2022-01-16T03:13:00,02,1.26
2022-01-16T03:14:00,02,1.26
2022-01-16T03:15:00,02,1.26
2022-01-16T03:16:00,02,1.26
2022-01-16T03:17:00,02,1.26
2022-01-16T03:18:00,02,1.26
2022-01-16T03:19:00,02,1.26
2022-01-16T03:20:00,02,1.26
2022-01-16T03:21:00,02,1.26
2022-01-16T03:22:00,02,1.26
2022-01-16T03:23:00,02,1.26
2022-01-16T03:24:00,02,1.26
2022-01-16T03:25:00,02,1.26
2022-01-16T03:26:00,02,1.26
2022-01-16T03:27:00,02,1.26
2022-01-16T03:28:00,02,1.26
2022-01-16T03:29:00,02,1.26
2022-01-16T00:00:00,03,3.55
2022-01-16T00:01:00,03,3.47
2022-01-16T00:02:00,03,3.47
2022-01-16T00:03:00,03,3.78
2022-01-16T00:04:00,03,3.78
2022-01-16T00:05:00,03,3.58
2022-01-16T00:06:00,03,3.58
2022-01-16T00:07:00,03,3.46
2022-01-16T00:08:00,03,3.45
2022-01-16T00:09:00,03,3.45
2022-01-16T00:10:00,03,3.39
2022-01-16T00:11:00,03,3.39
2022-01-16T00:12:00,03,3.59
2022-01-16T00:13:00,03,3.71
2022-01-16T00:14:00,03,3.71
2022-01-16T00:15:00,03,3.75
2022-01-16T00:16:00,03,3.75
2022-01-16T00:17:00,03,4.85
2022-01-16T00:18:00,03,4.85
2022-01-16T00:19:00,03,3.34
2022-01-16T00:20:00,03,3.34
2022-01-16T00:21:00,03,3.15
2022-01-16T00:22:00,03,3.15
2022-01-16T00:23:00,03,3.42
2022-01-16T00:24:00,03,3.52
2022-01-16T00:25:00,03,3.52
2022-01-16T00:26:00,03,3.55
2022-01-16T00:27:00,03,3.48
2022-01-16T00:28:00,03,3.48
2022-01-16T00:29:00,03,3.36
2022-01-16T00:30:00,03,3.73
2022-01-16T00:31:00,03,3.73
2022-01-16T00:32:00,03,3.59
2022-01-16T00:33:00,03,3.75
2022-01-16T00:34:00,03,3.71
2022-01-16T00:35:00,03,3.71
2022-01-16T00:36:00,03,3.74
2022-01-16T00:37:00,03,3.74
2022-01-16T00:38:00,03,3.70
2022-01-16T00:39:00,03,3.70
2022-01-16T00:40:00,03,3.74
2022-01-16T00:41:00,03,3.74
2022-01-16T00:42:00,03,3.75
2022-01-16T00:43:00,03,3.75
2022-01-16T00:44:00,03,3.51
2022-01-16T00:45:00,03,3.51
2022-01-16T00:46:00,03,3.91
2022-01-16T00:47:00,03,3.70
2022-01-16T00:48:00,03,3.70
2022-01-16T00:49:00,03,3.51
2022-01-16T00:50:00,03,3.47
2022-01-16T00:51:00,03,3.47
2022-01-16T00:52:00,03,3.67
2022-01-16T00:53:00,03,3.67
2022-01-16T00:54:00,03,3.60
2022-01-16T00:55:00,03,3.60
2022-01-16T00:56:00,03,4.01
2022-01-16T00:57:00,03,3.94
2022-01-16T00:58:00,03,3.94
2022-01-16T00:59:00,03,3.68
2022-01-16T01:00:00,03,3.68
2022-01-16T01:01:00,03,3.81
2022-01-16T01:02:00,03,3.81
2022-01-16T01:03:00,03,3.89
2022-01-16T01:04:00,03,3.89
2022-01-16T01:05:00,03,3.68
2022-01-16T01:06:00,03,3.68
2022-01-16T01:07:00,03,3.96
2022-01-16T01:08:00,03,3.81
2022-01-16T01:09:00,03,3.52
2022-01-16T01:10:00,03,3.52
2022-01-16T01:11:00,03,3.48
2022-01-16T01:12:00,03,3.42
2022-01-16T01:13:00,03,3.42
2022-01-16T01:14:00,03,3.78
2022-01-16T01:15:00,03,3.78
2022-01-16T01:16:00,03,3.35
2022-01-16T01:17:00,03,3.67
2022-01-16T01:18:00,03,3.67
2022-01-16T01:19:00,03,3.09
2022-01-16T01:20:00,03,3.09
2022-01-16T01:21:00,03,3.43
2022-01-16T01:22:00,03,3.43
2022-01-16T01:23:00,03,3.15
2022-01-16T01:24:00,03,3.15
2022-01-16T01:25:00,03,3.20
2022-01-16T01:26:00,03,3.20
2022-01-16T01:27:00,03,3.45
2022-01-16T01:28:00,03,3.45
2022-01-16T01:29:00,03,3.24
2022-01-16T01:30:00,03,3.24
2022-01-16T01:31:00,03,3.44
2022-01-16T01:32:00,03,3.42
2022-01-16T01:33:00,03,3.41
2022-01-16T01:34:00,03,3.47
2022-01-16T01:35:00,03,3.47
2022-01-16T01:36:00,03,3.45
2022-01-16T01:37:00,03,3.43
2022-01-16T01:38:00,03,3.43
2022-01-16T01:39:00,03,3.33
2022-01-16T01:40:00,03,2.94
2022-01-16T01:41:00,03,3.26
2022-01-16T01:42:00,03,3.26
2022-01-16T01:43:00,03,3.54
2022-01-16T01:44:00,03,3.54
2022-01-16T01:45:00,03,3.04
2022-01-16T01:46:00,03,3.04
2022-01-16T01:47:00,03,3.29
2022-01-16T01:48:00,03,3.29
2022-01-16T01:49:00,03,3.06
2022-01-16T01:50:00,03,3.06
2022-01-16T01:51:00,03,3.08
2022-01-16T01:52:00,03,3.08
2022-01-16T01:53:00,03,3.08
2022-01-16T01:54:00,03,2.98
2022-01-16T01:55:00,03,2.98
2022-01-16T01:56:00,03,3.13
2022-01-16T01:57:00,03,3.13
2022-01-16T01:58:00,03,3.32
2022-01-16T01:59:00,03,3.32
2022-01-16T02:00:00,03,3.27
2022-01-16T02:01:00,03,3.33
2022-01-16T02:02:00,03,3.33
2022-01-16T02:03:00,03,3.04
2022-01-16T02:04:00,03,3.18
2022-01-16T02:05:00,03,3.18
2022-01-16T02:06:00,03,3.12
2022-01-16T02:07:00,03,3.12
2022-01-16T02:08:00,03,3.12
2022-01-16T02:09:00,03,3.42
2022-01-16T02:10:00,03,3.42
2022-01-16T02:11:00,03,3.37
2022-01-16T02:12:00,03,3.37
2022-01-16T02:13:00,03,3.55
2022-01-16T02:14:00,03,3.55
2022-01-16T02:15:00,03,3.55
2022-01-16T02:16:00,03,3.72
2022-01-16T02:17:00,03,3.92
2022-01-16T02:18:00,03,3.92
2022-01-16T02:19:00,03,3.70
2022-01-16T02:20:00,03,3.70
2022-01-16T02:21:00,03,3.60
2022-01-16T02:22:00,03,3.60
2022-01-16T02:23:00,03,3.60
2022-01-16T02:24:00,03,3.51
2022-01-16T02:25:00,03,3.51
2022-01-16T02:26:00,03,3.37
2022-01-16T02:27:00,03,3.37
2022-01-16T02:28:00,03,3.32
2022-01-16T02:29:00,03,3.32
2022-01-16T02:30:00,03,3.31
2022-01-16T02:31:00,03,3.31
2022-01-16T02:32:00,03,3.38
2022-01-16T02:33:00,03,3.31
2022-01-16T02:34:00,03,3.31
2022-01-16T02:35:00,03,3.41
2022-01-16T02:36:00,03,3.29
2022-01-16T02:37:00,03,3.29
2022-01-16T02:38:00,03,3.64
2022-01-16T02:39:00,03,3.66
2022-01-16T02:40:00,03,3.66
2022-01-16T02:41:00,03,3.58
2022-01-16T02:42:00,03,3.51
2022-01-16T02:43:00,03,3.51
2022-01-16T02:44:00,03,3.47
2022-01-16T02:45:00,03,3.47
2022-01-16T02:46:00,03,3.51
2022-01-16T02:47:00,03,3.52
2022-01-16T02:48:00,03,3.52
2022-01-16T02:49:00,03,3.39
2022-01-16T02:50:00,03,3.39
2022-01-16T02:51:00,03,3.35
2022-01-16T02:52:00,03,3.11
2022-01-16T02:53:00,03,3.11
2022-01-16T02:54:00,03,3.27
2022-01-16T02:55:00,03,3.27
2022-01-16T02:56:00,03,3.21
2022-01-16T02:57:00,03,3.29
2022-01-16T02:58:00,03,3.29
2022-01-16T02:59:00,03,3.36
2022-01-16T03:00:00,03,3.39
2022-01-16T03:01:00,03,3.39
2022-01-16T03:02:00,03,3.53
2022-01-16T03:03:00,03,3.69
2022-01-16T03:04:00,03,3.69
2022-01-16T03:05:00,03,3.29
2022-01-16T03:06:00,03,3.29
2022-01-16T03:07:00,03,3.06
2022-01-16T03:08:00,03,3.06
2022-01-16T03:09:00,03,3.30
2022-01-16T03:10:00,03,3.30
2022-01-16T03:11:00,03,3.28
2022-01-16T03:12:00,03,3.28
2022-01-16T03:13:00,03,3.21
2022-01-16T03:14:00,03,3.21
2022-01-16T03:15:00,03,3.14
2022-01-16T03:16:00,03,3.14
2022-01-16T03:17:00,03,3.26
2022-01-16T03:18:00,03,3.26
2022-01-16T03:19:00,03,3.12
2022-01-16T03:20:00,03,3.38
2022-01-16T03:21:00,03,3.38
2022-01-16T03:22:00,03,3.11
2022-01-16T03:23:00,03,3.18
2022-01-16T03:24:00,03,3.18
2022-01-16T03:25:00,03,3.21
2022-01-16T03:26:00,03,3.21
2022-01-16T03:27:00,03,3.29
2022-01-16T03:28:00,03,3.29
2022-01-16T03:29:00,03,3.29
2022-01-16T00:00:00,04,1.94
2022-01-16T00:01:00,04,1.94
2022-01-16T00:02:00,04,1.94
2022-01-16T00:03:00,04,1.94
2022-01-16T00:04:00,04,1.94
2022-01-16T00:05:00,04,1.94
2022-01-16T00:06:00,04,1.94
2022-01-16T00:07:00,04,1.94
2022-01-16T00:08:00,04,1.94
2022-01-16T00:09:00,04,1.94
2022-01-16T00:10:00,04,1.94
2022-01-16T00:11:00,04,1.94
2022-01-16T00:12:00,04,1.94
2022-01-16T00:13:00,04,1.94
2022-01-16T00:14:00,04,1.94
2022-01-16T00:15:00,04,1.94
2022-01-16T00:16:00,04,1.94
2022-01-16T00:17:00,04,1.94
2022-01-16T00:18:00,04,1.94
2022-01-16T00:19:00,04,1.94
2022-01-16T00:20:00,04,1.94
2022-01-16T00:21:00,04,1.94
2022-01-16T00:22:00,04,1.94
2022-01-16T00:23:00,04,1.94
2022-01-16T00:24:00,04,1.94
2022-01-16T00:25:00,04,1.94
2022-01-16T00:26:00,04,1.94
2022-01-16T00:27:00,04,1.94
2022-01-16T00:28:00,04,1.94
2022-01-16T00:29:00,04,1.94
2022-01-16T00:30:00,04,1.94
2022-01-16T00:31:00,04,1.94
2022-01-16T00:32:00,04,1.94
2022-01-16T00:33:00,04,1.94
2022-01-16T00:34:00,04,1.94
2022-01-16T00:35:00,04,1.94
2022-01-16T00:36:00,04,1.94
2022-01-16T00:37:00,04,1.94
2022-01-16T00:38:00,04,1.94
2022-01-16T00:39:00,04,1.94
2022-01-16T00:40:00,04,1.94
2022-01-16T00:41:00,04,1.94
2022-01-16T00:42:00,04,1.94
2022-01-16T00:43:00,04,1.94
2022-01-16T00:44:00,04,1.94
2022-01-16T00:45:00,04,1.94
2022-01-16T00:46:00,04,1.94
2022-01-16T00:47:00,04,1.94
2022-01-16T00:48:00,04,1.94
2022-01-16T00:49:00,04,1.94
2022-01-16T00:50:00,04,1.94
2022-01-16T00:51:00,04,1.94
2022-01-16T00:52:00,04,1.94
2022-01-16T00:53:00,04,1.94
2022-01-16T00:54:00,04,1.94
2022-01-16T00:55:00,04,1.94
2022-01-16T00:56:00,04,1.94
2022-01-16T00:57:00,04,1.94
2022-01-16T00:58:00,04,1.94
2022-01-16T00:59:00,04,1.94
2022-01-16T01:00:00,04,1.94
2022-01-16T01:01:00,04,1.94
2022-01-16T01:02:00,04,1.94
2022-01-16T01:03:00,04,1.94
2022-01-16T01:04:00,04,1.94
2022-01-16T01:05:00,04,1.94
2022-01-16T01:06:00,04,1.94
2022-01-16T01:07:00,04,1.94
2022-01-16T01:08:00,04,1.94
2022-01-16T01:09:00,04,1.94
2022-01-16T01:10:00,04,1.94
2022-01-16T01:11:00,04,1.94
2022-01-16T01:12:00,04,1.94
2022-01-16T01:13:00,04,1.94
2022-01-16T01:14:00,04,1.94
2022-01-16T01:15:00,04,1.94
2022-01-16T01:16:00,04,1.94
2022-01-16T01:17:00,04,1.94
2022-01-16T01:18:00,04,1.94
2022-01-16T01:19:00,04,1.94
2022-01-16T01:20:00,04,1.94
2022-01-16T01:21:00,04,1.94
2022-01-16T01:22:00,04,1.94
2022-01-16T01:23:00,04,1.94
2022-01-16T01:24:00,04,1.94
2022-01-16T01:25:00,04,1.94
2022-01-16T01:26:00,04,1.94
2022-01-16T01:27:00,04,1.94
2022-01-16T01:28:00,04,1.94
2022-01-16T01:29:00,04,1.94
2022-01-16T01:30:00,04,1.94
2022-01-16T01:31:00,04,1.94
2022-01-16T01:32:00,04,1.94
2022-01-16T01:33:00,04,1.94
2022-01-16T01:34:00,04,1.94
2022-01-16T01:35:00,04,1.94
2022-01-16T01:36:00,04,1.94
2022-01-16T01:37:00,04,1.94
2022-01-16T01:38:00,04,1.94
2022-01-16T01:39:00,04,1.94
2022-01-16T01:40:00,04,1.94
2022-01-16T01:41:00,04,1.94
2022-01-16T01:42:00,04,1.94
2022-01-16T01:43:00,04,1.94
2022-01-16T01:44:00,04,1.94
2022-01-16T01:45:00,04,1.94
2022-01-16T01:46:00,04,1.94
2022-01-16T01:47:00,04,1.94
2022-01-16T01:48:00,04,1.94
2022-01-16T01:49:00,04,1.94
2022-01-16T01:50:00,04,1.94
2022-01-16T01:51:00,04,1.94
2022-01-16T01:52:00,04,1.94
2022-01-16T01:53:00,04,1.94
2022-01-16T01:54:00,04,1.94
2022-01-16T01:55:00,04,1.94
2022-01-16T01:56:00,04,1.94
2022-01-16T01:57:00,04,1.94
2022-01-16T01:58:00,04,1.94
2022-01-16T01:59:00,04,1.94
2022-01-16T02:00:00,04,1.94
2022-01-16T02:01:00,04,1.94
2022-01-16T02:02:00,04,1.94
2022-01-16T02:03:00,04,1.94
2022-01-16T02:04:00,04,1.94
2022-01-16T02:05:00,04,1.94
2022-01-16T02:06:00,04,1.94
2022-01-16T02:07:00,04,1.94
2022-01-16T02:08:00,04,1.94
2022-01-16T02:09:00,04,1.94
2022-01-16T02:10:00,04,1.94
2022-01-16T02:11:00,04,1.94
2022-01-16T02:12:00,04,1.94
2022-01-16T02:13:00,04,1.94
2022-01-16T02:14:00,04,1.94
2022-01-16T02:15:00,04,1.94
2022-01-16T02:16:00,04,1.94
2022-01-16T02:17:00,04,1.94
2022-01-16T02:18:00,04,1.94
2022-01-16T02:19:00,04,1.94
2022-01-16T02:20:00,04,1.94
2022-01-16T02:21:00,04,1.94
2022-01-16T02:22:00,04,1.94
2022-01-16T02:23:00,04,1.94
2022-01-16T02:24:00,04,1.94
2022-01-16T02:25:00,04,1.94
2022-01-16T02:26:00,04,1.94
2022-01-16T02:27:00,04,1.94
2022-01-16T02:28:00,04,1.94
2022-01-16T02:29:00,04,1.94
2022-01-16T02:30:00,04,1.94
2022-01-16T02:31:00,04,1.94
2022-01-16T02:32:00,04,1.94
2022-01-16T02:33:00,04,1.94
2022-01-16T02:34:00,04,2.00
2022-01-16T02:35:00,04,2.00
2022-01-16T02:36:00,04,2.00
2022-01-16T02:37:00,04,2.00
2022-01-16T02:38:00,04,2.00
2022-01-16T02:39:00,04,2.00
2022-01-16T02:40:00,04,2.00
2022-01-16T02:41:00,04,2.00
2022-01-16T02:42:00,04,2.00
2022-01-16T02:43:00,04,2.00
2022-01-16T02:44:00,04,2.00
2022-01-16T02:45:00,04,2.00
2022-01-16T02:46:00,04,2.00
2022-01-16T02:47:00,04,2.00
2022-01-16T02:48:00,04,2.00
2022-01-16T02:49:00,04,2.00
2022-01-16T02:50:00,04,2.00
2022-01-16T02:51:00,04,2.00
2022-01-16T02:52:00,04,2.00
2022-01-16T02:53:00,04,2.00
2022-01-16T02:54:00,04,2.00
2022-01-16T02:55:00,04,2.00
2022-01-16T02:56:00,04,2.00
2022-01-16T02:57:00,04,2.00
2022-01-16T02:58:00,04,2.00
2022-01-16T02:59:00,04,2.00
2022-01-16T03:00:00,04,2.00
2022-01-16T03:01:00,04,2.00
2022-01-16T03:02:00,04,2.00
2022-01-16T03:03:00,04,2.00
2022-01-16T03:04:00,04,2.00
2022-01-16T03:05:00,04,2.00
2022-01-16T03:06:00,04,2.00
2022-01-16T03:07:00,04,2.00
2022-01-16T03:08:00,04,2.00
2022-01-16T03:09:00,04,2.00
2022-01-16T03:10:00,04,2.00
2022-01-16T03:11:00,04,2.00
2022-01-16T03:12:00,04,2.00
2022-01-16T03:13:00,04,2.00
2022-01-16T03:14:00,04,2.00
2022-01-16T03:15:00,04,2.00
2022-01-16T03:16:00,04,2.00
2022-01-16T03:17:00,04,2.00
2022-01-16T03:18:00,04,2.00
2022-01-16T03:19:00,04,2.00
2022-01-16T03:20:00,04,2.00
2022-01-16T03:21:00,04,2.00
2022-01-16T03:22:00,04,2.00
2022-01-16T03:23:00,04,2.00
2022-01-16T03:24:00,04,2.00
2022-01-16T03:25:00,04,2.00
2022-01-16T03:26:00,04,2.00
2022-01-16T03:27:00,04,2.00
2022-01-16T03:28:00,04,2.00
2022-01-16T03:29:00,04,2.00
2022-01-16T00:00:00,05,1.83
2022-01-16T00:01:00,05,1.93
2022-01-16T00:02:00,05,1.93
2022-01-16T00:03:00,05,3.05
2022-01-16T00:04:00,05,3.05
2022-01-16T00:05:00,05,1.83
2022-01-16T00:06:00,05,1.83
2022-01-16T00:07:00,05,1.83
2022-01-16T00:08:00,05,1.89
2022-01-16T00:09:00,05,1.89
2022-01-16T00:10:00,05,1.82
2022-01-16T00:11:00,05,1.82
2022-01-16T00:12:00,05,1.82
2022-01-16T00:13:00,05,1.81
2022-01-16T00:14:00,05,1.81
2022-01-16T00:15:00,05,1.76